When you browse on this site, cookies collect data to enhance your experience and personalize the content and advertising you see.
Visit our Privacy Policy to learn more. By continuing to use the site, you agree to this use of cookies and data.
  • In Schweiz
  • Länderverzeichnis
  • Für 7 Tage
  • Wassertemperatur
  • Satellitenkarten
  • Wetterkarte
  • Widgets
  • user-avatar
    Anmelden

    Stündliche Wetter Homyakovka

    Heute, 27 Juni, Donnerstag

    Zeit Temperatur Niederschläge Wind Luftdruck Luftfeuchtigkeit
    00:00 +17°C° 0.2 mm 2 m/S 739 mmHg 89%
    01:00 +17°C° 0.2 mm 2 m/S 739 mmHg 90%
    02:00 +18°C° 0.2 mm 1 m/S 738 mmHg 90%
    03:00 +18°C° 0.3 mm 1 m/S 738 mmHg 91%
    04:00 +18°C° 0.3 mm 1 m/S 737 mmHg 92%
    05:00 +18°C° 0.3 mm 1 m/S 736 mmHg 93%
    06:00 +18°C° 0.2 mm 1 m/S 736 mmHg 93%
    07:00 +19°C° 0.2 mm 1 m/S 736 mmHg 93%
    08:00 +20°C° 0.2 mm 1 m/S 735 mmHg 92%
    09:00 +19°C° 1.1 mm 3 m/S 734 mmHg 93%
    10:00 +19°C° 1.1 mm 4 m/S 734 mmHg 93%
    11:00 +19°C° 1.1 mm 5 m/S 733 mmHg 94%
    12:00 +20°C° 0.7 mm 5 m/S 732 mmHg 91%
    13:00 +21°C° 0.7 mm 6 m/S 731 mmHg 89%
    14:00 +22°C° 0.7 mm 6 m/S 730 mmHg 86%
    15:00 +22°C° 4 mm 6 m/S 729 mmHg 88%
    16:00 +22°C° 4 mm 5 m/S 728 mmHg 89%
    17:00 +21°C° 4 mm 5 m/S 727 mmHg 91%
    18:00 +21°C° 1.2 mm 5 m/S 726 mmHg 92%
    19:00 +20°C° 1.2 mm 4 m/S 726 mmHg 93%
    20:00 +19°C° 1.2 mm 4 m/S 725 mmHg 94%
    21:00 +19°C° 0.1 mm 4 m/S 724 mmHg 94%
    22:00 +19°C° 0.1 mm 5 m/S 724 mmHg 95%
    23:00 +17°C° 0.1 mm 6 m/S 724 mmHg 96%

    Morgen, 28 Juni, Freitag

    Zeit Temperatur Niederschläge Wind Luftdruck Luftfeuchtigkeit
    00:00 +17°C° 0 mm 6 m/S 723 mmHg 95%
    01:00 +16°C° 0 mm 6 m/S 723 mmHg 95%
    02:00 +16°C° 0 mm 6 m/S 723 mmHg 94%
    03:00 +15°C° 0 mm 6 m/S 723 mmHg 94%
    04:00 +14°C° 0 mm 6 m/S 723 mmHg 93%
    05:00 +13°C° 0 mm 6 m/S 723 mmHg 93%
    06:00 +14°C° 0.1 mm 6 m/S 723 mmHg 91%
    07:00 +14°C° 0.1 mm 7 m/S 723 mmHg 89%
    08:00 +14°C° 0.1 mm 7 m/S 723 mmHg 88%
    09:00 +14°C° 0 mm 7 m/S 722 mmHg 86%
    10:00 +14°C° 0 mm 7 m/S 722 mmHg 85%
    11:00 +14°C° 0 mm 7 m/S 722 mmHg 84%
    12:00 +14°C° 0.1 mm 7 m/S 722 mmHg 84%
    13:00 +14°C° 0.1 mm 6 m/S 722 mmHg 83%
    14:00 +14°C° 0.1 mm 6 m/S 722 mmHg 83%
    15:00 +13°C° 0.1 mm 5 m/S 722 mmHg 86%
    16:00 +13°C° 0.1 mm 4 m/S 722 mmHg 88%
    17:00 +12°C° 0.1 mm 3 m/S 722 mmHg 91%
    18:00 +12°C° 0.2 mm 5 m/S 723 mmHg 92%
    19:00 +10°C° 0.2 mm 6 m/S 723 mmHg 93%
    20:00 +9°C° 0.2 mm 7 m/S 724 mmHg 93%
    21:00 +9°C° 0.4 mm 8 m/S 724 mmHg 94%
    22:00 +7°C° 0.4 mm 8 m/S 724 mmHg 94%
    23:00 +7°C° 0.4 mm 8 m/S 724 mmHg 94%

    übermorgen, 29 Juni, Samstag

    Zeit Temperatur Niederschläge Wind Luftdruck Luftfeuchtigkeit
    00:00 +9°C° 0.4 mm 8 m/S 724 mmHg 94%
    01:00 +9°C° 0.4 mm 7 m/S 725 mmHg 94%
    02:00 +9°C° 0.4 mm 7 m/S 725 mmHg 95%
    03:00 +9°C° 0.4 mm 8 m/S 725 mmHg 94%
    04:00 +7°C° 0.4 mm 8 m/S 726 mmHg 94%
    05:00 +7°C° 0.4 mm 9 m/S 726 mmHg 94%
    06:00 +6°C° 0.3 mm 9 m/S 726 mmHg 94%
    07:00 +6°C° 0.3 mm 9 m/S 727 mmHg 93%
    08:00 +5°C° 0.3 mm 9 m/S 727 mmHg 93%
    09:00 +5°C° 0.6 mm 9 m/S 728 mmHg 93%
    10:00 +5°C° 0.6 mm 8 m/S 728 mmHg 93%
    11:00 +5°C° 0.6 mm 8 m/S 729 mmHg 92%
    12:00 +5°C° 1.2 mm 8 m/S 730 mmHg 92%
    13:00 +5°C° 1.2 mm 8 m/S 730 mmHg 92%
    14:00 +5°C° 1.2 mm 8 m/S 730 mmHg 92%
    15:00 +5°C° 1.5 mm 7 m/S 731 mmHg 93%
    16:00 +5°C° 1.5 mm 7 m/S 731 mmHg 93%
    17:00 +6°C° 1.5 mm 7 m/S 731 mmHg 93%
    18:00 +7°C° 1.2 mm 6 m/S 731 mmHg 94%
    19:00 +7°C° 1.2 mm 5 m/S 732 mmHg 94%
    20:00 +7°C° 1.2 mm 4 m/S 732 mmHg 94%
    21:00 +7°C° 0.2 mm 4 m/S 732 mmHg 93%
    22:00 +7°C° 0.2 mm 4 m/S 732 mmHg 92%
    23:00 +7°C° 0.2 mm 4 m/S 732 mmHg 92%

    30 Juni, Sonntag

    Zeit Temperatur Niederschläge Wind Luftdruck Luftfeuchtigkeit
    00:00 +8°C° 0 mm 3 m/S 733 mmHg 93%
    01:00 +7°C° 0 mm 3 m/S 733 mmHg 94%
    02:00 +7°C° 0 mm 3 m/S 733 mmHg 95%
    03:00 +7°C° 0 mm 3 m/S 733 mmHg 93%
    04:00 +8°C° 0 mm 3 m/S 734 mmHg 91%
    05:00 +7°C° 0 mm 4 m/S 734 mmHg 90%
    06:00 +8°C° 0 mm 4 m/S 734 mmHg 85%
    07:00 +11°C° 0 mm 4 m/S 734 mmHg 81%
    08:00 +12°C° 0 mm 4 m/S 735 mmHg 77%
    09:00 +14°C° 0 mm 5 m/S 735 mmHg 71%
    10:00 +15°C° 0 mm 5 m/S 735 mmHg 65%
    11:00 +16°C° 0 mm 5 m/S 736 mmHg 59%
    12:00 +17°C° 0 mm 5 m/S 736 mmHg 58%
    13:00 +17°C° 0 mm 5 m/S 736 mmHg 58%
    14:00 +19°C° 0 mm 5 m/S 736 mmHg 57%
    15:00 +19°C° 0 mm 4 m/S 736 mmHg 61%
    16:00 +19°C° 0 mm 3 m/S 736 mmHg 66%
    17:00 +19°C° 0 mm 3 m/S 736 mmHg 70%
    18:00 +17°C° 0 mm 3 m/S 736 mmHg 75%
    19:00 +14°C° 0 mm 3 m/S 736 mmHg 81%
    20:00 +14°C° 0 mm 2 m/S 736 mmHg 86%
    21:00 +13°C° 0 mm 2 m/S 737 mmHg 88%
    22:00 +13°C° 0 mm 2 m/S 737 mmHg 91%
    23:00 +12°C° 0 mm 2 m/S 737 mmHg 93%

    1 Juli, Montag

    Zeit Temperatur Niederschläge Wind Luftdruck Luftfeuchtigkeit
    00:00 +11°C° 0 mm 3 m/S 737 mmHg 94%
    01:00 +10°C° 0 mm 3 m/S 737 mmHg 94%
    02:00 +10°C° 0 mm 3 m/S 737 mmHg 95%
    03:00 +10°C° 0 mm 3 m/S 737 mmHg 95%
    04:00 +12°C° 0 mm 2 m/S 737 mmHg 94%
    05:00 +12°C° 0 mm 2 m/S 737 mmHg 94%
    06:00 +14°C° 0 mm 2 m/S 737 mmHg 88%
    07:00 +16°C° 0 mm 2 m/S 737 mmHg 82%
    08:00 +17°C° 0 mm 2 m/S 737 mmHg 77%
    09:00 +18°C° 0 mm 2 m/S 737 mmHg 71%
    10:00 +19°C° 0 mm 2 m/S 737 mmHg 64%
    11:00 +20°C° 0 mm 2 m/S 737 mmHg 58%
    12:00 +21°C° 0 mm 2 m/S 737 mmHg 57%
    13:00 +22°C° 0 mm 1 m/S 736 mmHg 55%
    14:00 +23°C° 0 mm 1 m/S 736 mmHg 54%
    15:00 +23°C° 0 mm 1 m/S 736 mmHg 57%
    16:00 +23°C° 0 mm 1 m/S 736 mmHg 60%
    17:00 +23°C° 0 mm 1 m/S 736 mmHg 63%
    18:00 +20°C° 0 mm 2 m/S 735 mmHg 67%
    19:00 +18°C° 0 mm 2 m/S 735 mmHg 71%
    20:00 +16°C° 0 mm 3 m/S 735 mmHg 75%
    21:00 +16°C° 0 mm 3 m/S 735 mmHg 75%
    22:00 +14°C° 0 mm 3 m/S 734 mmHg 76%
    23:00 +14°C° 0 mm 3 m/S 734 mmHg 76%

    2 Juli, Dienstag

    Zeit Temperatur Niederschläge Wind Luftdruck Luftfeuchtigkeit
    00:00 +13°C° 0 mm 3 m/S 734 mmHg 79%
    01:00 +13°C° 0 mm 3 m/S 734 mmHg 82%
    02:00 +13°C° 0 mm 3 m/S 733 mmHg 85%
    03:00 +14°C° 0 mm 3 m/S 733 mmHg 87%
    04:00 +14°C° 0 mm 3 m/S 733 mmHg 89%
    05:00 +15°C° 0 mm 4 m/S 733 mmHg 91%
    06:00 +17°C° 0 mm 4 m/S 733 mmHg 89%
    07:00 +19°C° 0 mm 4 m/S 732 mmHg 88%
    08:00 +21°C° 0 mm 3 m/S 732 mmHg 87%
    09:00 +21°C° 0 mm 4 m/S 732 mmHg 87%
    10:00 +21°C° 0 mm 4 m/S 732 mmHg 87%
    11:00 +22°C° 0 mm 4 m/S 732 mmHg 87%
    12:00 +22°C° 0.1 mm 4 m/S 731 mmHg 85%
    13:00 +23°C° 0.1 mm 4 m/S 731 mmHg 82%
    14:00 +23°C° 0.1 mm 4 m/S 731 mmHg 79%
    15:00 +23°C° 0.2 mm 4 m/S 731 mmHg 79%
    16:00 +23°C° 0.2 mm 5 m/S 731 mmHg 79%
    17:00 +23°C° 0.2 mm 5 m/S 731 mmHg 79%
    18:00 +21°C° 0 mm 4 m/S 731 mmHg 82%
    19:00 +19°C° 0 mm 4 m/S 731 mmHg 85%
    20:00 +18°C° 0 mm 4 m/S 732 mmHg 88%
    21:00 +17°C° 0 mm 4 m/S 732 mmHg 88%
    22:00 +15°C° 0 mm 4 m/S 732 mmHg 88%
    23:00 +14°C° 0 mm 4 m/S 732 mmHg 88%
    Mehr zeigen